Theta_e
290 290 289 289 288 288 288 287 287 287 286 286 286 286 285 285 285 285 285 286 287 287 287 287 287 287 287 287 287 287 287 286 286 286 286 286 286 286 285 285 285 284 283 282 281 281 280 280 280 280 280 280 280 279 279 279 279 279 279 279 279 280 280 280 280 280 280 280 279 279 279 279 279 279 279 279 279 279 279 279 278 279 279 278 278
289 289 288 288 288 287 287 287 287 286 286 286 286 285 285 285 285 285 286 287 287 287 287 287 287 286 287 287 287 287 287 286 286 286 286 286 285 285 285 284 284 283 283 282 281 280 280 280 280 279 279 279 279 279 279 278 278 278 278 279 278 278 278 279 279 279 279 279 279 278 278 278 279 279 278 278 278 278 278 278 278 278 278 277 277
289 288 288 287 287 287 287 286 286 286 286 285 285 285 285 285 286 286 287 287 287 287 287 287 287 286 287 287 287 287 286 286 286 286 286 285 285 285 284 284 283 283 282 281 281 280 280 280 280 279 279 279 279 279 278 278 278 278 278 277 277 277 277 278 278 278 278 278 278 278 278 278 278 278 277 277 277 277 277 277 277 277 277 277 277
288 288 287 287 287 286 286 286 286 286 285 285 285 285 285 285 286 287 287 287 287 286 286 286 286 287 287 287 287 287 286 286 286 286 285 285 285 284 284 283 283 282 282 281 280 280 280 279 279 279 278 278 278 278 278 277 277 277 277 277 276 276 277 277 277 277 277 277 277 277 277 277 277 277 276 276 276 276 276 276 276 276 276 276 276
288 287 287 287 286 286 286 286 286 285 285 285 285 284 285 286 286 287 287 287 286 286 286 286 286 287 287 287 287 286 286 286 286 286 285 285 284 284 283 283 283 282 281 281 280 279 279 279 278 278 278 278 278 278 277 277 277 276 276 276 276 276 276 277 277 277 277 276 277 277 276 276 276 276 275 275 275 275 275 275 275 275 276 275 276
287 287 287 286 286 286 286 286 285 285 285 285 285 285 285 286 286 286 287 287 286 286 286 286 287 287 287 287 287 286 286 286 286 285 285 285 284 283 283 283 282 282 281 281 280 279 279 278 278 278 278 277 277 277 277 277 276 276 276 275 276 276 276 276 276 276 276 276 276 276 275 275 275 275 275 274 275 275 275 275 275 275 275 275 275
287 287 286 286 286 286 286 286 285 285 285 285 284 285 286 286 286 286 286 286 287 287 287 287 287 287 287 287 286 286 286 286 285 285 285 284 283 283 282 282 282 281 281 280 279 279 278 278 278 278 277 277 277 277 277 276 276 276 275 275 275 275 275 275 275 275 275 275 275 274 274 274 274 274 274 274 274 274 274 274 274 274 274 275 275
287 287 286 286 286 286 286 286 285 285 285 285 284 285 286 286 286 286 286 286 287 287 287 287 287 287 286 286 286 286 286 285 285 285 284 283 282 282 282 281 281 281 280 280 279 279 278 278 277 277 277 277 277 276 276 276 276 275 275 275 275 275 275 275 274 274 274 274 274 274 274 273 273 273 273 273 274 274 274 274 274 274 274 274 275
287 286 286 286 286 286 286 285 285 285 284 284 284 285 286 286 286 286 286 286 287 287 287 287 287 287 286 286 286 286 285 285 285 284 283 282 281 281 281 281 281 280 280 280 279 279 278 277 277 277 277 277 276 276 276 276 276 276 276 276 275 275 275 274 274 274 274 274 274 273 273 273 273 273 273 273 273 273 273 274 274 274 274 274 275
287 286 286 286 286 286 285 285 285 285 284 284 284 285 285 286 286 286 286 286 287 287 287 287 286 286 286 286 286 285 285 285 284 284 283 282 281 281 281 280 280 280 280 280 279 278 278 277 277 277 277 276 276 276 276 276 276 276 276 276 276 275 275 275 274 274 274 273 273 273 273 273 273 273 273 273 273 273 273 274 274 274 274 275 275
286 286 286 286 286 286 285 285 285 284 284 284 284 284 285 286 286 286 286 286 287 287 286 286 286 286 286 286 285 285 285 285 284 283 282 281 281 281 280 280 280 280 279 279 278 278 277 277 277 276 276 276 276 275 275 275 275 275 276 276 276 276 275 275 275 274 274 274 273 273 273 273 273 273 273 273 273 274 274 274 274 274 275 275 275
286 286 286 286 286 285 285 285 285 284 284 284 284 285 285 286 286 286 286 286 287 286 286 286 286 286 285 285 285 285 285 284 284 283 281 281 280 280 280 279 279 279 279 278 278 277 277 276 276 276 275 275 275 275 274 274 274 274 274 275 275 275 275 275 275 275 274 274 274 274 274 273 273 273 274 274 274 274 274 274 274 275 275 275 275
286 286 286 286 286 285 285 285 285 284 285 285 284 284 285 286 286 286 286 286 286 286 286 286 286 285 285 285 285 285 284 284 283 282 281 280 279 278 278 278 278 278 278 277 277 276 276 275 275 275 275 275 274 274 274 273 273 273 273 273 273 273 274 274 274 274 274 274 274 274 274 274 274 274 274 274 274 275 275 275 275 275 275 275 276
286 286 286 286 285 285 285 285 285 285 285 285 284 285 285 285 286 286 286 286 286 286 286 285 285 285 285 285 284 284 284 283 282 281 280 279 278 277 277 278 278 277 277 277 276 276 275 275 274 274 274 274 274 273 273 273 273 273 273 273 273 273 273 273 273 274 274 274 274 274 274 274 274 274 274 274 275 275 275 275 275 275 275 276 276
286 286 286 286 286 286 285 285 285 285 285 285 285 285 285 285 285 286 286 286 286 286 285 285 285 285 285 284 284 284 283 283 281 280 279 279 278 277 277 277 277 277 276 276 275 275 274 274 274 274 274 274 273 273 273 273 273 273 273 273 273 273 273 274 274 274 274 274 274 274 275 275 275 275 275 275 275 275 276 276 276 276 276 276 276
287 286 286 286 286 286 286 285 285 285 285 285 285 285 285 285 285 285 285 285 285 285 284 285 285 285 284 284 284 284 283 282 281 280 279 278 277 277 277 277 276 276 276 275 275 274 274 274 274 274 273 273 273 273 273 274 274 274 274 274 274 274 274 274 275 275 275 276 276 276 276 276 276 277 277 277 277 277 277 276 276 276 276 276 276
287 286 286 286 286 286 286 286 286 285 285 285 285 285 285 285 285 285 285 285 285 284 284 284 284 284 283 283 283 283 283 282 280 279 278 277 277 276 276 276 276 276 275 275 274 274 274 273 273 273 273 273 272 272 273 274 274 274 275 275 275 275 275 275 275 276 276 276 276 277 277 277 277 277 277 276 276 276 276 275 276 276 276 276 277
287 287 287 286 286 286 286 286 286 285 285 285 285 285 285 285 285 285 285 285 285 285 284 284 283 283 283 282 283 283 282 281 280 279 278 277 276 276 276 275 275 275 275 274 273 273 273 272 272 272 272 272 272 273 274 274 275 275 275 275 275 275 275 276 276 276 276 276 276 276 275 275 275 275 274 274 274 274 274 275 275 275 276 276 276
288 288 287 287 287 287 286 286 286 286 285 285 285 285 285 285 285 285 285 284 284 284 283 283 282 282 282 282 282 282 282 281 279 278 277 277 276 276 275 275 274 274 274 273 272 272 272 272 272 272 272 273 273 274 275 275 276 276 276 276 276 276 276 275 275 275 275 275 274 274 273 273 273 272 272 272 272 273 273 273 273 273 274 274 275
289 289 288 288 287 287 286 286 286 286 286 285 285 285 285 285 285 284 284 284 283 283 282 282 281 281 281 281 281 281 281 280 279 278 277 276 276 275 275 274 274 274 273 272 271 271 271 271 271 272 273 274 274 275 275 275 276 276 276 276 275 275 275 275 274 274 273 273 272 272 271 271 270 270 270 270 271 271 271 271 272 272 273 273 274
290 289 289 288 288 287 287 287 286 286 286 286 285 285 285 285 284 284 284 283 282 282 281 281 281 281 280 281 281 281 280 279 278 277 277 276 276 275 275 274 274 274 273 271 271 270 270 271 271 272 273 274 274 275 275 275 276 276 276 275 274 274 274 274 273 272 271 270 270 269 269 269 269 269 269 269 269 269 270 270 271 271 271 272 272
290 290 289 289 288 288 287 287 287 286 286 286 285 285 285 284 284 284 283 282 282 281 280 280 280 280 279 280 280 280 279 279 278 277 276 276 276 275 275 275 274 273 272 271 271 271 271 271 272 273 273 274 274 275 275 276 276 275 274 273 273 273 273 272 271 270 269 268 268 268 268 268 268 268 268 268 268 269 269 269 270 270 270 271 271
291 291 290 289 289 288 288 288 287 287 286 286 285 285 285 284 284 283 282 282 281 280 279 279 278 278 278 279 279 279 278 278 277 277 276 276 276 275 274 274 274 273 272 271 271 272 272 272 272 273 273 274 274 275 275 275 274 273 272 272 272 272 271 270 269 268 268 267 267 267 267 267 267 267 267 267 267 268 268 268 268 268 269 269 269
292 291 290 290 289 289 288 288 288 287 287 286 286 285 284 284 283 282 282 281 280 279 279 278 277 277 277 278 278 278 278 277 277 277 276 276 275 275 274 274 273 273 272 272 272 272 272 272 272 273 274 274 275 275 274 273 272 271 271 271 271 270 269 268 267 267 267 266 266 266 266 266 266 266 266 267 267 267 267 267 267 267 268 268 268
291 291 291 290 290 289 289 288 288 288 287 286 286 285 284 284 283 282 281 280 279 279 278 277 277 277 276 277 277 277 277 276 276 277 276 276 275 274 274 274 273 273 273 273 273 273 273 273 273 274 274 275 274 273 272 271 270 270 270 270 270 269 268 267 267 266 266 266 266 266 266 266 266 266 266 266 266 266 267 267 267 268 268 268 268
291 291 290 290 290 289 289 288 288 287 287 286 286 285 285 284 283 282 280 279 279 278 277 277 276 275 276 276 277 276 275 275 276 276 276 275 275 274 274 273 273 273 273 273 273 273 273 274 274 274 275 274 273 272 271 270 269 270 270 269 269 268 267 267 266 266 266 266 266 266 266 266 266 266 266 266 266 267 267 267 268 268 268 268 269
290 290 290 290 289 289 288 288 287 287 286 285 285 284 283 283 282 281 280 279 278 277 276 275 275 274 275 275 275 275 274 274 274 274 275 275 274 274 273 273 272 272 273 273 273 273 273 273 273 274 273 273 272 271 270 269 269 270 269 269 268 268 267 267 266 266 266 266 266 266 266 266 266 266 266 266 267 267 267 268 268 268 268 268 269
288 288 288 288 288 287 287 286 286 286 285 285 284 283 283 282 281 281 281 281 279 278 277 276 276 276 276 275 274 273 273 273 274 274 275 274 274 273 273 272 272 272 272 272 272 272 272 272 273 273 272 272 271 270 270 269 269 269 269 268 268 268 267 266 266 266 266 266 265 265 265 266 266 266 266 266 267 267 267 268 268 268 268 268 268
287 286 285 285 285 285 284 284 284 284 283 283 282 282 281 280 280 280 280 280 279 279 278 278 278 277 276 276 275 274 273 274 275 275 275 274 273 272 272 272 272 272 272 272 272 272 272 272 272 272 272 271 270 269 269 269 269 269 269 268 267 267 267 266 266 266 266 265 265 265 265 265 266 266 266 267 267 267 267 267 268 268 268 268 268
285 285 284 283 283 283 282 282 282 281 281 280 280 279 278 278 277 277 277 276 276 276 276 276 277 276 276 276 276 275 275 275 275 274 273 272 272 272 272 272 272 272 272 272 273 273 272 272 272 271 271 270 269 268 268 268 268 268 268 268 267 266 266 266 265 265 265 265 265 265 265 265 266 266 267 267 267 267 267 267 268 268 268 268 268
284 283 283 283 282 282 282 281 281 280 279 279 278 277 277 276 275 275 274 274 274 273 273 273 274 274 274 274 274 274 273 273 272 272 272 272 272 273 273 273 273 274 274 273 273 273 272 272 271 271 271 269 268 268 267 267 267 268 268 267 267 266 266 265 265 265 265 265 265 265 265 266 266 267 267 267 267 267 267 267 267 268 268 268 268
283 282 282 282 281 281 280 280 279 278 277 276 276 275 274 274 274 273 273 272 272 272 272 272 272 272 273 273 273 272 272 271 271 272 272 273 273 273 274 274 274 274 274 274 273 273 272 272 271 271 270 269 268 267 267 267 267 267 267 266 267 266 266 265 265 264 264 264 264 265 265 266 266 266 266 266 267 267 267 267 267 267 268 268 268
281 281 280 279 279 279 278 278 277 276 276 275 274 273 272 272 272 272 272 272 272 272 272 272 272 272 272 272 272 272 272 272 272 272 273 273 273 274 274 274 274 273 273 274 273 272 272 272 271 270 269 268 267 267 267 267 267 267 266 266 266 266 265 265 264 264 264 264 264 265 265 265 266 266 266 266 266 266 267 267 267 267 267 267 268
280 279 278 278 277 277 277 276 276 275 274 274 273 272 272 271 271 271 271 271 272 272 272 272 272 272 273 273 273 273 273 273 273 273 273 273 273 273 273 273 273 273 273 273 272 272 272 271 270 270 269 268 267 267 267 266 266 266 266 265 265 265 265 265 264 264 264 264 264 264 265 265 265 266 266 266 266 266 266 267 267 267 267 267 267
278 277 276 276 275 275 275 274 274 273 273 272 272 271 271 270 270 270 270 270 270 271 271 271 271 272 272 272 272 272 273 273 273 273 273 273 273 273 272 272 272 272 273 273 272 271 271 270 270 269 268 267 267 266 266 266 266 266 265 265 265 265 265 265 264 264 264 264 264 264 264 265 265 265 266 266 266 266 266 266 267 267 267 267 268
276 275 274 274 273 273 272 272 272 271 271 270 270 270 269 269 269 269 269 269 269 269 269 269 270 270 270 270 270 270 270 271 271 272 272 272 272 272 272 272 272 271 272 271 271 270 270 270 269 268 267 267 266 266 266 266 266 265 265 265 264 264 265 265 264 264 264 264 264 264 264 264 265 265 265 265 265 265 266 266 266 267 267 267 267
274 273 272 272 271 271 271 270 270 270 269 269 269 268 268 268 268 268 268 268 268 268 268 267 268 268 268 268 269 269 269 269 269 270 270 271 271 271 271 271 271 271 270 270 270 269 269 269 268 267 267 266 266 266 266 265 265 265 264 264 264 264 264 264 264 263 263 263 263 263 263 264 264 265 265 265 265 265 265 265 266 267 267 267 267
271 270 270 270 270 270 270 269 269 269 268 268 268 267 267 267 267 266 266 266 266 266 266 266 266 266 266 267 267 267 267 267 267 268 269 270 270 270 271 271 270 270 270 269 269 269 268 268 267 267 266 266 265 265 265 265 265 264 264 264 264 264 264 264 264 263 263 263 263 263 263 263 264 264 264 264 264 264 264 265 266 267 267 266 266
269 268 268 268 268 268 268 268 268 268 267 267 267 266 266 266 266 265 265 265 265 265 265 265 265 264 265 265 266 265 265 265 266 266 267 267 268 269 269 269 269 269 269 269 268 268 267 267 266 266 266 265 265 265 265 265 264 264 264 263 263 264 264 264 264 263 263 263 263 263 262 262 263 263 264 264 264 264 264 265 266 266 266 266 266
268 267 267 267 267 267 267 267 267 267 266 266 266 266 265 265 265 265 264 264 264 264 264 263 263 263 263 264 264 264 264 264 264 264 265 265 266 266 267 267 268 268 268 268 268 267 266 266 266 265 265 265 265 264 264 264 264 264 263 263 263 263 263 263 263 263 263 263 263 262 262 262 262 262 263 263 263 264 264 265 266 266 265 265 265
267 267 266 266 266 266 266 266 266 266 266 265 265 265 264 264 264 263 263 263 263 262 262 262 262 262 262 262 263 264 264 264 263 263 263 264 264 265 265 266 266 267 267 267 266 266 265 265 265 265 264 264 264 264 264 264 264 264 263 263 263 263 263 263 263 263 262 262 262 262 262 261 261 262 262 263 263 263 264 264 265 265 265 265 265
266 266 266 266 265 265 265 265 265 264 264 264 264 263 263 263 262 262 262 262 262 262 261 261 261 261 261 261 262 263 264 264 264 264 263 263 263 264 264 265 265 265 266 266 265 265 264 264 264 264 264 264 264 264 264 264 264 263 263 263 262 262 262 263 263 262 262 262 262 261 261 261 260 261 261 262 262 262 263 264 264 265 265 264 264
266 266 266 265 265 264 264 264 263 263 263 263 262 262 262 262 262 262 261 261 261 261 261 261 261 260 260 260 261 261 262 262 262 263 263 263 263 263 264 264 264 264 264 264 264 264 263 263 263 263 264 264 264 264 264 264 263 263 262 262 262 262 262 262 262 262 262 262 261 261 260 260 260 260 260 261 262 262 262 263 264 264 264 264 264
265 265 265 264 264 263 263 263 262 262 262 262 262 262 261 261 261 261 261 261 260 260 260 260 260 260 260 260 260 260 260 260 260 261 261 261 262 263 263 263 263 263 263 263 263 263 263 263 263 263 263 264 264 264 263 263 263 263 262 262 262 262 262 262 262 262 261 261 260 260 260 259 259 259 260 261 262 262 262 263 264 264 264 264 264
264 264 264 264 263 263 262 262 262 262 261 261 261 261 261 260 260 260 260 260 260 259 259 259 259 259 259 259 259 259 259 259 259 259 260 260 261 261 262 262 263 262 262 262 263 262 262 262 262 262 263 263 263 263 263 263 263 262 262 262 262 262 262 262 262 262 261 261 260 260 260 259 259 259 260 261 261 261 262 263 264 264 264 264 264
263 263 263 262 262 262 261 261 261 261 260 260 260 260 260 260 259 259 259 259 259 259 259 259 259 259 259 259 259 258 258 258 259 259 259 259 259 260 261 261 261 261 261 262 262 262 262 262 262 262 263 263 263 263 263 263 262 262 262 262 262 262 262 262 262 261 261 261 260 260 259 259 258 259 260 260 261 261 261 263 263 264 264 264 263
262 262 262 261 261 260 260 260 260 260 260 260 260 260 260 260 260 259 259 259 259 259 259 259 259 259 259 258 258 258 258 258 258 258 258 258 259 259 260 260 260 260 261 261 261 261 262 262 262 262 262 262 262 262 262 262 262 262 262 262 262 262 262 261 261 261 260 260 260 259 259 258 258 259 259 260 260 261 262 262 263 264 264 263 263
262 261 261 261 260 260 260 260 260 260 260 260 260 260 260 260 260 260 259 259 259 259 259 259 259 258 258 258 258 258 258 258 258 258 258 258 259 259 259 259 260 260 260 260 261 261 262 262 262 262 262 262 262 262 262 262 262 262 262 262 262 262 261 261 260 260 260 259 259 259 258 258 258 258 258 259 259 261 262 263 263 264 264 263 263
261 261 261 261 261 261 261 260 260 260 260 260 260 260 259 259 259 259 259 259 259 258 258 258 259 259 258 258 258 258 258 258 258 258 258 258 259 259 259 259 260 260 260 261 261 261 261 262 262 261 262 262 262 262 262 262 262 262 262 262 261 261 260 260 260 260 260 259 259 258 258 258 258 258 258 258 259 260 262 263 263 264 263 263 263
261 261 261 261 261 261 261 260 260 260 260 259 259 259 259 259 259 259 259 258 258 258 258 259 259 259 259 258 258 258 258 258 258 258 258 259 259 259 259 259 260 260 260 261 261 261 261 261 261 261 261 261 261 261 261 261 261 261 261 261 261 260 260 260 260 260 260 259 259 259 258 258 258 258 258 259 260 261 262 263 263 263 263 263 263
261 261 261 261 261 261 260 260 260 260 260 259 259 259 259 259 259 259 258 258 258 258 259 258 258 259 259 258 258 258 258 258 258 258 259 259 259 259 259 259 260 260 260 260 261 261 261 261 261 261 261 261 261 261 261 261 261 260 260 260 260 260 260 260 260 260 260 259 259 258 258 259 259 259 259 259 260 261 262 263 263 263 263 263 263
Wind_Speed
29 29 29 28 29 28 28 28 28 27 27 26 25 24 23 22 21 20 19 18 16 15 14 13 13 12 12 11 10 10 9 9 9 9 9 9 9 10 10 11 11 11 11 11 11 11 12 12 12 11 11 12 14 14 13 12 11 11 10 10 12 10 12 15 14 20 31 32 27 27 28 28 29 28 28 31 32 33 35 36 35 35 35 37 38
29 29 29 29 29 29 29 29 28 27 27 26 25 24 23 22 21 20 19 18 16 15 14 14 14 13 12 11 9 9 8 7 7 7 7 7 8 9 10 11 11 11 11 12 11 12 12 12 12 11 10 12 14 14 14 12 11 12 11 11 14 13 12 15 17 18 26 33 33 30 28 27 28 28 28 31 33 33 35 36 34 33 35 36 36
29 29 29 29 29 29 29 29 28 27 27 26 25 24 24 22 21 20 19 18 17 16 15 15 15 13 12 10 8 7 6 5 4 4 5 6 7 8 9 10 11 12 12 12 12 12 12 12 12 11 11 13 14 14 13 12 11 12 14 14 15 16 13 13 16 18 23 31 35 31 28 28 30 29 27 30 32 31 32 35 35 35 35 34 33
29 29 29 29 29 29 29 29 28 28 27 26 26 25 24 22 21 20 19 18 18 17 16 15 15 13 11 9 7 6 4 3 2 3 4 5 7 8 9 10 11 12 13 13 13 13 13 13 12 12 13 14 14 14 13 12 13 14 16 16 15 17 16 14 15 19 22 28 34 32 28 27 31 31 29 30 31 30 31 34 36 35 34 32 31
29 29 30 29 29 29 30 29 29 29 28 27 26 25 24 24 22 21 20 19 18 18 17 16 15 13 10 8 6 5 3 1 1 2 4 5 7 8 9 11 12 12 13 13 13 13 13 13 13 12 13 14 15 15 14 14 15 15 16 18 17 17 17 16 17 19 21 26 32 34 30 28 31 32 28 26 30 31 31 32 32 32 33 34 33
30 30 30 30 30 30 30 30 30 29 28 27 27 26 26 25 23 22 21 20 20 19 18 16 15 12 10 8 6 4 3 1 1 3 4 5 7 8 9 11 12 13 14 14 14 14 14 13 14 13 13 15 15 15 15 15 16 17 18 18 18 18 18 19 18 19 21 24 28 32 32 29 28 31 28 24 26 29 30 31 31 30 31 35 36
30 30 31 31 31 31 31 31 31 30 28 28 27 27 27 25 24 23 22 21 21 20 18 17 15 12 10 8 6 5 3 2 3 4 5 6 7 9 10 11 13 14 15 15 15 15 15 14 14 14 14 15 16 16 16 16 17 19 20 20 19 19 19 19 19 19 21 24 26 27 29 28 26 28 29 26 25 25 24 27 30 31 32 33 35
31 31 31 31 31 32 32 31 31 30 29 28 29 28 27 26 25 24 23 22 21 20 18 17 15 12 10 9 7 6 5 4 4 5 6 7 8 10 11 12 13 15 16 16 16 16 16 15 15 15 15 15 16 17 17 18 19 21 22 21 19 19 19 20 20 20 21 22 23 23 25 27 26 26 28 27 24 23 22 24 28 32 33 34 34
32 32 32 32 32 32 32 31 31 30 29 29 29 29 28 27 26 25 24 23 22 20 19 17 15 13 11 10 8 7 6 6 6 7 8 8 10 11 12 13 14 16 17 17 18 17 16 16 15 14 15 15 16 17 17 18 19 21 22 21 21 21 21 21 20 20 19 19 20 20 22 25 24 24 26 25 23 24 26 26 27 29 32 34 34
33 33 33 33 32 32 32 31 31 31 30 29 29 29 29 28 28 27 26 24 23 21 20 18 16 14 13 11 10 8 8 8 8 8 9 10 11 13 14 14 15 16 18 19 19 18 17 16 15 14 15 16 17 18 18 18 18 19 20 20 21 21 21 22 21 19 19 20 20 19 20 24 23 21 24 26 26 26 27 26 27 29 30 31 32
33 34 33 33 32 32 32 32 32 32 31 30 29 30 30 30 29 28 27 25 23 22 21 19 17 15 14 12 11 10 9 9 9 10 10 11 13 14 15 16 16 17 18 19 20 20 18 17 16 16 16 16 18 19 19 18 17 17 18 18 18 19 20 22 22 21 21 21 22 20 19 24 26 22 22 27 27 26 26 26 26 28 27 24 26
34 34 33 33 33 32 32 32 33 33 33 31 31 31 31 31 30 29 28 26 25 23 22 20 19 17 15 13 13 12 10 11 11 11 12 13 14 16 16 17 17 18 18 19 20 19 19 18 17 17 17 17 18 19 20 20 19 18 17 17 17 17 17 19 21 22 22 23 25 24 20 22 27 25 23 26 29 29 28 28 26 26 27 25 24
33 33 33 33 33 33 33 33 34 34 34 33 32 31 31 32 32 31 29 28 26 25 23 22 20 19 17 16 15 13 12 12 13 13 13 13 14 16 17 18 18 19 19 19 20 19 18 19 18 18 18 18 19 19 20 20 20 18 17 17 18 18 17 18 19 20 22 24 27 28 25 24 27 28 26 27 30 31 29 29 28 25 26 27 29
33 34 34 34 34 33 34 35 35 34 33 33 32 32 33 33 32 31 30 29 27 26 25 24 22 21 20 18 17 15 14 14 14 14 14 15 15 16 17 18 19 19 20 20 19 19 18 18 18 19 20 20 20 20 19 19 19 20 20 20 21 21 21 21 22 23 26 27 28 30 28 27 28 31 31 30 32 33 33 34 33 30 31 35 38
34 35 35 34 34 35 35 35 35 34 33 33 33 33 33 33 33 32 31 30 29 28 27 25 24 23 22 20 19 17 16 15 15 16 16 15 16 16 18 19 19 20 20 20 19 18 17 17 19 20 20 20 18 17 17 18 19 20 22 22 23 24 25 26 27 28 30 30 30 31 32 32 33 36 37 35 35 36 37 38 37 35 36 38 38
34 35 34 33 34 35 35 35 34 34 34 34 34 34 34 34 34 33 31 30 30 29 27 26 25 25 24 22 21 20 18 17 17 17 17 16 17 18 19 19 20 20 20 20 20 18 18 18 19 19 18 18 17 15 14 16 18 20 23 24 25 26 27 28 29 29 30 31 31 33 35 36 37 37 37 36 35 36 38 39 38 35 33 32 31
34 33 33 33 34 35 35 35 35 35 35 35 35 36 36 35 34 33 32 32 31 30 29 28 28 27 26 24 23 22 20 18 18 18 17 17 17 19 19 20 20 21 21 20 20 18 18 17 17 17 17 17 15 14 14 15 18 21 24 25 26 28 30 31 31 29 28 28 30 31 33 35 35 35 36 36 36 37 38 38 35 32 28 24 21
33 32 33 34 34 35 35 36 35 35 35 36 37 37 36 35 34 34 34 33 33 32 31 30 29 28 27 25 24 23 22 20 19 19 18 17 18 19 20 20 20 21 21 20 19 17 17 16 14 15 17 16 15 14 14 16 19 21 22 25 28 30 29 28 27 26 27 29 31 32 33 34 35 37 38 37 36 34 33 33 32 30 26 21 17
33 34 35 35 35 35 35 36 36 36 37 37 37 37 36 35 35 34 34 33 33 32 31 30 30 29 28 26 25 25 24 22 20 19 18 17 18 19 20 20 20 21 21 20 18 17 16 15 13 14 16 16 15 15 15 16 18 20 23 26 28 26 24 25 27 29 30 31 32 34 35 36 36 37 37 34 32 30 29 31 33 31 29 27 25
33 34 34 33 33 34 34 35 36 37 37 37 37 36 35 34 34 34 33 33 32 32 31 30 30 29 28 28 27 26 26 23 20 19 18 17 17 19 20 20 21 21 20 18 17 17 16 15 14 13 14 14 14 14 15 15 18 21 23 22 22 23 26 29 30 29 30 31 33 34 36 36 35 34 32 31 29 29 28 28 29 30 30 31 29
31 31 30 30 31 32 33 34 35 36 36 36 35 34 34 34 34 33 33 33 32 32 31 30 30 29 29 29 28 27 26 24 21 19 18 17 17 19 20 21 21 21 20 18 18 17 16 15 14 12 13 13 14 14 15 16 18 20 21 21 23 26 27 28 27 28 29 31 32 32 32 32 32 31 30 29 28 28 27 26 26 26 27 28 29
27 27 27 27 29 30 31 32 33 34 34 33 33 33 33 32 33 32 32 32 31 31 31 30 30 30 29 30 30 28 27 25 22 20 18 18 18 19 21 22 21 20 20 20 19 18 16 15 14 13 13 13 14 15 17 17 18 20 21 21 22 22 21 22 25 27 27 27 28 28 29 30 30 29 28 27 26 26 26 25 25 25 26 27 29
23 23 24 26 27 28 29 30 31 31 32 32 32 32 32 31 31 31 31 31 31 31 30 30 30 30 30 31 31 29 27 25 23 20 19 18 19 19 20 21 20 19 20 20 19 18 16 16 16 15 14 15 16 16 15 16 18 20 20 18 17 18 18 21 22 22 23 24 25 27 28 27 27 28 28 27 27 26 25 25 25 26 27 28 29
20 21 22 24 25 25 26 27 28 29 30 31 31 31 31 31 31 31 31 31 31 31 31 30 30 31 31 32 31 30 28 25 23 21 19 19 19 19 19 20 20 19 20 21 20 18 18 18 17 15 15 15 15 14 15 17 19 19 17 15 15 16 17 18 19 19 21 23 24 25 26 26 27 28 28 27 27 27 27 27 27 28 29 29 29
20 21 22 23 23 23 24 25 26 28 29 30 31 32 32 31 31 32 32 32 32 33 32 32 32 32 32 32 32 31 28 25 23 21 20 19 19 19 20 20 20 20 21 22 22 20 18 17 16 16 16 15 14 16 19 21 20 18 15 14 14 14 15 16 17 17 20 22 22 24 26 26 27 27 27 27 28 29 29 29 30 31 31 31 31
21 22 22 23 23 24 25 26 27 28 29 29 30 31 32 33 33 33 33 33 34 34 33 33 32 32 32 33 32 29 27 25 23 21 20 20 20 20 20 20 20 20 21 22 21 19 18 18 17 17 16 15 16 18 21 22 19 16 15 13 12 13 14 14 15 16 19 21 22 24 25 26 27 27 27 28 29 29 29 29 31 32 32 31 32
22 23 24 25 25 26 27 28 28 28 29 29 30 30 31 32 33 34 34 35 35 34 33 32 32 32 32 33 30 27 25 25 24 22 21 20 21 20 19 20 19 19 20 21 21 19 18 17 17 17 16 16 18 20 20 19 17 15 14 12 12 13 13 13 14 15 18 20 22 24 25 26 26 27 28 29 29 29 28 28 28 30 31 31 31
22 23 24 25 26 27 28 28 29 29 29 30 31 32 33 34 35 37 38 38 38 37 36 35 35 35 34 32 28 25 25 26 26 25 22 21 20 19 19 20 19 19 20 21 20 19 19 19 19 19 19 19 21 21 19 16 15 14 14 13 12 13 13 13 13 15 16 18 20 22 24 25 26 27 28 28 29 28 27 27 27 28 30 29 27
20 21 22 22 24 25 26 26 27 28 28 29 30 31 32 33 35 37 37 36 36 36 36 37 37 36 34 31 28 27 28 28 27 24 21 20 19 19 19 19 18 18 18 17 17 19 20 21 21 20 19 19 20 19 17 15 14 14 14 13 13 13 13 13 14 15 16 17 19 22 24 25 26 26 26 27 28 28 28 27 27 27 28 27 25
19 20 21 21 21 22 23 23 24 25 26 27 28 29 29 29 31 33 33 32 30 30 30 31 32 30 30 29 28 27 27 26 23 20 19 19 18 18 18 18 18 18 17 16 18 20 21 21 20 19 18 19 19 19 17 16 15 14 13 13 14 14 14 14 14 15 16 17 20 22 23 24 25 25 25 26 28 29 29 27 26 27 26 26 26
20 21 21 21 22 22 22 23 23 24 25 26 26 27 27 28 28 28 29 28 26 25 24 24 24 24 25 25 25 24 23 21 18 17 17 18 18 19 19 19 19 19 18 17 19 22 22 21 20 20 19 20 20 19 18 16 15 15 14 15 15 15 14 14 14 14 16 18 20 21 21 22 23 24 24 25 27 28 29 28 27 26 26 25 26
18 19 19 19 20 21 21 22 22 23 23 24 24 24 24 25 26 26 26 26 26 25 25 24 23 22 21 21 22 22 21 19 17 16 17 18 19 20 20 20 21 20 19 20 23 24 23 21 21 21 21 21 21 20 19 17 16 15 15 16 16 15 14 14 14 14 16 17 19 21 21 21 22 23 24 25 25 26 27 27 27 26 26 26 26
14 16 16 16 17 18 19 20 21 21 21 21 22 22 21 22 23 23 22 21 22 23 23 23 22 20 19 18 18 19 19 17 16 16 17 18 20 20 20 20 21 20 20 22 25 25 23 23 23 23 22 22 22 21 19 18 16 15 15 16 17 15 14 14 15 15 16 16 17 19 20 21 22 23 24 24 24 24 26 26 26 26 25 26 27
12 14 14 15 15 15 16 17 18 19 19 19 20 20 20 20 19 18 16 16 17 18 19 18 17 16 16 16 16 16 17 16 16 17 18 19 20 19 19 20 20 20 22 25 27 26 24 24 24 24 23 23 22 21 20 18 16 15 15 16 16 15 15 15 15 16 16 16 17 19 20 21 22 22 23 24 24 24 25 25 25 25 25 26 28
11 12 13 13 13 13 13 14 15 15 16 16 17 18 19 18 17 16 15 14 14 14 15 15 15 14 14 15 16 17 18 17 17 17 18 18 18 17 18 21 22 22 22 25 27 26 25 24 24 24 23 23 22 21 20 18 16 15 15 15 15 15 15 15 16 17 17 17 18 20 21 22 22 22 22 23 23 24 24 25 25 26 25 26 27
10 10 11 11 11 10 10 11 11 12 12 13 14 14 15 15 15 15 15 15 14 14 14 14 15 15 15 15 16 16 17 17 17 17 18 18 18 18 21 24 24 24 25 26 26 26 25 25 24 23 22 22 22 21 19 18 16 15 15 15 15 16 16 16 17 17 17 18 20 21 22 22 23 23 22 22 23 23 24 25 26 25 24 26 27
8 8 8 8 9 9 9 8 8 9 9 10 11 11 12 12 13 13 13 14 15 15 15 15 16 16 17 17 17 17 18 18 18 18 19 19 19 21 25 26 24 24 27 29 28 26 25 25 24 22 22 22 22 20 19 17 16 16 15 15 16 16 16 17 17 18 18 19 20 21 22 22 23 23 22 22 23 23 24 25 25 24 25 27 29
6 6 5 5 6 7 7 7 7 7 7 8 8 9 9 10 10 10 11 12 12 13 14 15 15 16 17 18 17 17 18 19 19 20 21 21 21 23 26 27 26 27 29 29 27 25 25 25 24 23 22 22 21 20 18 17 16 16 16 16 16 16 17 18 18 18 19 20 21 21 22 23 23 23 22 22 22 23 24 25 24 23 25 28 29
6 5 4 4 4 5 5 5 5 6 6 6 6 6 7 8 8 9 10 11 12 13 14 15 16 17 17 18 17 16 17 18 20 21 22 23 24 25 26 26 27 28 28 28 26 24 25 25 25 24 23 22 21 19 18 17 16 16 16 16 17 17 18 19 20 20 20 21 22 22 23 23 23 23 22 22 22 23 24 24 24 23 25 28 28
6 6 5 5 4 4 4 4 4 4 4 4 5 5 6 7 8 8 9 10 11 12 13 14 15 16 16 17 17 16 18 20 21 21 21 22 24 25 26 27 27 28 28 28 27 27 28 27 26 25 24 23 21 19 17 17 17 17 17 18 18 19 19 20 21 21 22 22 23 23 24 24 23 23 23 22 22 22 23 24 24 24 25 27 28
6 6 6 5 4 3 2 2 2 2 2 3 4 4 5 6 7 8 9 9 11 12 13 14 15 16 16 15 14 16 19 22 23 22 22 22 22 23 25 27 28 30 30 29 29 29 28 27 25 24 23 22 20 18 17 17 17 18 18 19 19 20 21 21 22 23 23 23 24 24 24 23 22 22 23 23 22 22 23 24 24 24 25 27 28
5 5 5 5 4 3 2 1 1 1 1 2 2 3 4 5 6 7 8 9 11 12 14 15 16 17 16 15 14 15 19 21 22 22 22 22 22 23 24 25 27 28 28 28 27 27 26 24 23 22 21 20 19 18 17 17 18 19 19 20 20 21 22 23 23 24 24 24 24 24 24 24 23 23 23 22 22 23 24 24 23 23 25 27 27
4 4 4 4 3 3 2 2 1 1 1 2 2 3 4 5 6 7 9 10 11 13 15 17 18 18 18 17 15 16 18 20 20 20 20 21 22 23 23 24 25 25 24 24 23 23 22 22 21 21 20 19 18 18 18 18 19 19 20 21 22 23 24 24 25 25 24 24 24 24 24 25 25 24 23 21 21 23 24 24 23 24 25 27 27
3 2 2 2 2 2 2 2 2 2 3 3 4 5 5 7 7 8 10 11 12 13 15 16 18 19 19 18 17 18 19 21 22 22 21 21 21 22 23 24 24 23 23 23 23 22 22 21 20 20 19 19 18 18 19 19 20 21 22 23 24 25 25 25 25 24 23 24 24 25 25 26 25 24 23 22 22 23 23 23 23 24 26 27 27
2 2 2 2 2 2 1 1 1 2 2 3 4 4 5 6 7 8 9 11 12 13 15 16 17 18 19 20 20 20 21 22 22 22 23 22 22 22 23 25 25 25 25 25 24 23 22 21 20 19 19 19 19 19 20 20 21 22 23 24 25 26 26 25 24 23 22 23 23 24 25 25 25 24 24 24 23 22 22 23 24 25 26 27 26
2 3 2 2 2 2 2 1 1 1 1 2 3 4 5 6 7 9 10 11 13 14 16 17 17 18 19 20 21 21 22 22 23 23 23 23 23 22 22 24 25 26 25 24 23 21 21 20 20 20 20 20 20 20 20 21 22 23 24 25 26 26 26 25 23 22 21 21 22 23 24 24 25 25 25 24 22 21 22 24 24 25 26 27 27
3 3 3 3 3 2 1 0 1 2 3 3 4 5 6 7 8 9 10 12 13 15 16 17 18 19 20 20 20 21 21 21 22 22 23 23 23 22 21 20 21 22 21 20 19 19 19 19 20 20 20 20 21 21 21 22 23 24 25 25 25 25 25 23 22 22 21 21 21 22 23 25 26 26 25 23 21 21 23 24 24 25 27 28 27
3 4 3 3 2 1 0 1 2 3 4 4 5 6 7 8 9 10 11 12 13 14 15 16 18 19 20 20 20 20 20 20 20 21 22 22 22 22 20 19 18 18 18 18 17 17 18 19 20 20 21 21 22 22 22 23 24 24 24 24 24 24 23 22 21 21 21 21 21 22 23 25 25 25 23 21 20 21 23 25 26 27 28 27 26
3 3 2 1 1 1 1 2 3 4 5 5 6 7 8 9 10 11 12 13 14 14 15 16 17 18 20 20 21 21 20 20 21 21 21 21 21 20 19 18 17 16 16 17 17 17 18 19 20 21 21 22 23 23 23 23 24 23 23 23 23 22 21 20 20 20 20 21 21 21 21 22 22 21 20 20 21 22 24 26 27 28 28 26 25
1 1 1 2 2 3 3 4 4 5 6 7 8 9 9 10 12 12 13 14 15 15 16 17 17 18 19 20 21 21 21 21 21 21 21 21 21 20 19 18 17 17 16 17 17 17 18 19 20 21 22 22 23 23 23 23 23 22 22 22 21 20 19 19 19 19 19 19 19 18 18 18 19 20 20 21 22 23 24 25 26 27 27 25 25
1 2 3 4 4 4 5 5 6 6 7 8 9 10 11 12 13 13 14 15 16 17 17 18 18 19 20 21 21 21 21 21 21 21 20 20 20 19 19 19 18 18 18 18 18 18 18 19 20 21 21 22 22 22 22 22 22 21 21 20 19 19 18 18 19 19 18 16 17 18 18 19 20 21 22 22 22 22 23 25 26 26 25 24 24
Wind_Direction
177 175 174 174 172 171 170 170 169 169 168 168 167 164 163 162 161 159 156 153 152 147 139 129 120 114 110 105 100 94 87 79 69 60 51 41 32 24 15 7 359 350 343 339 335 331 328 327 329 329 325 319 320 324 325 326 324 319 318 313 305 300 298 297 291 290 297 302 302 304 310 312 313 316 314 312 313 314 315 316 318 319 319 319 319
179 177 176 176 175 172 171 171 171 171 170 170 170 168 166 166 164 162 158 156 153 146 139 133 130 127 123 119 116 108 96 88 78 64 51 39 29 21 12 4 357 348 340 334 330 326 323 321 323 323 316 310 312 318 321 322 323 318 314 308 302 301 298 296 295 292 295 302 305 306 311 313 312 313 315 313 314 316 315 314 316 315 315 317 318
181 180 178 177 176 174 173 173 173 174 174 174 173 171 170 169 167 165 163 160 154 148 145 143 141 141 139 136 130 121 111 100 84 60 44 32 22 14 4 358 352 344 338 332 327 324 320 319 320 317 310 306 309 313 316 318 316 308 304 305 303 303 300 294 292 291 292 298 303 306 310 312 310 311 314 312 312 315 314 313 314 314 315 318 318
182 182 179 178 177 176 175 176 176 177 178 178 176 175 174 171 169 169 167 163 158 155 154 153 154 154 155 151 145 140 133 113 76 43 30 18 10 2 355 350 345 339 334 329 324 321 319 318 318 315 308 306 308 311 312 311 308 304 304 307 306 303 302 295 289 289 291 294 298 302 306 308 307 308 312 313 313 314 313 313 315 317 317 318 316
184 183 181 179 179 178 179 179 180 182 182 181 180 179 177 174 173 173 170 166 163 162 163 165 168 169 167 165 162 163 160 140 52 15 4 357 353 348 344 340 337 334 329 325 321 319 316 314 312 310 306 304 305 307 308 307 306 305 305 306 304 302 300 295 290 289 288 288 293 298 303 305 306 307 312 315 314 315 315 315 316 317 317 316 314
186 185 183 182 181 181 182 183 185 186 186 185 183 182 180 178 178 177 175 172 171 171 173 177 180 181 180 180 181 185 191 210 310 337 337 337 336 333 331 330 327 327 324 321 318 315 312 310 308 305 301 299 300 302 303 303 303 301 300 299 298 295 293 292 293 292 290 287 290 296 301 305 308 308 312 316 315 314 315 316 315 315 316 315 315
187 186 186 185 185 185 187 188 190 190 190 188 186 185 184 184 184 182 181 180 180 180 183 187 189 190 193 194 198 206 217 245 287 307 314 318 319 318 318 319 319 320 319 317 314 310 306 304 301 299 296 294 295 297 298 298 297 295 295 296 294 292 291 293 295 294 293 292 293 296 300 304 306 307 310 315 314 312 315 315 314 315 316 315 313
188 188 188 188 189 190 191 193 193 193 192 190 190 189 189 189 188 186 186 187 187 189 193 196 197 198 202 206 212 221 233 255 278 292 300 303 304 305 308 310 313 314 313 311 308 304 302 300 297 295 292 290 291 293 294 296 295 295 297 298 297 294 294 295 297 298 297 296 295 297 301 303 305 307 311 315 316 314 316 313 308 309 312 312 310
190 190 190 191 194 195 195 196 196 195 194 193 193 193 193 193 191 191 191 192 194 196 200 203 205 207 210 214 220 229 242 258 274 283 289 292 293 296 300 303 306 307 308 308 305 303 301 299 297 294 291 290 290 290 289 290 291 292 296 298 297 296 294 295 296 297 297 295 295 300 302 300 304 310 310 312 312 310 312 309 303 304 307 306 305
192 192 193 195 197 198 198 198 197 196 196 197 198 197 197 196 194 195 196 197 199 202 205 208 211 214 217 220 226 235 247 259 270 276 281 285 286 289 293 297 300 302 304 304 303 302 301 299 299 297 292 290 289 288 288 288 287 288 290 292 293 293 293 293 293 293 293 292 292 297 298 296 300 305 304 304 306 305 305 304 301 302 305 303 302
194 195 196 197 199 200 200 199 198 198 199 200 202 201 200 200 198 199 201 202 205 207 210 213 216 219 222 226 233 240 248 260 267 271 276 280 284 287 290 293 296 298 300 301 300 300 300 300 299 296 293 291 290 290 290 290 290 289 288 288 287 287 288 289 290 290 288 287 287 288 288 291 296 299 299 301 303 301 299 298 297 298 299 298 299
196 197 198 200 201 200 201 200 200 201 201 203 204 204 204 203 203 203 205 207 210 212 215 219 221 224 228 232 238 245 252 260 265 268 272 277 281 285 288 291 295 296 297 297 297 297 298 297 296 294 294 293 292 293 293 294 297 295 292 290 287 285 285 285 288 292 291 288 287 285 283 288 292 293 294 297 297 296 294 292 290 289 289 288 287
198 199 200 202 202 201 203 203 202 203 203 205 206 206 206 207 207 208 210 213 215 217 220 224 226 229 233 236 242 248 254 260 263 266 270 273 277 280 284 289 291 293 294 293 292 293 294 294 294 293 292 291 291 292 293 296 299 296 292 289 286 285 286 286 285 288 290 289 286 284 283 284 284 284 286 288 289 289 289 288 287 285 283 282 280
201 202 203 204 203 203 205 205 204 204 205 206 208 209 210 211 212 213 215 217 220 222 224 228 230 234 238 241 245 249 253 258 262 263 266 271 274 275 279 284 287 289 290 289 288 289 290 291 290 289 288 289 290 292 293 296 296 294 292 291 289 290 291 290 288 288 289 285 279 278 278 274 272 277 282 283 282 283 284 285 286 283 281 281 281
204 205 205 204 204 205 206 206 205 205 207 208 210 212 214 215 216 217 219 221 225 228 230 232 235 238 241 243 246 249 253 256 259 261 264 269 271 271 275 280 282 284 285 285 285 286 288 288 286 286 288 290 291 293 295 295 294 294 295 294 295 295 294 294 295 294 292 286 277 277 280 279 279 283 285 285 283 284 286 288 288 288 286 285 285
206 207 206 206 206 206 206 206 206 208 209 210 212 214 217 218 219 220 222 225 228 230 233 236 239 241 242 243 246 250 253 255 256 259 263 266 268 269 273 276 278 280 281 281 282 283 284 285 285 287 288 289 291 291 290 290 290 291 293 293 295 295 294 296 296 290 286 285 284 286 289 290 290 290 291 292 293 296 299 298 297 296 292 289 289
208 208 207 208 208 207 208 208 209 210 211 212 215 217 219 220 221 223 225 227 229 232 235 238 241 242 242 244 247 251 253 253 255 258 260 263 265 268 271 274 275 278 280 280 280 281 281 283 286 287 287 288 290 286 284 286 287 287 290 293 294 294 293 296 296 290 286 288 291 293 294 295 295 295 296 298 299 301 302 298 296 297 293 288 288
209 208 210 211 210 210 211 212 212 212 212 215 218 220 221 223 225 227 228 230 233 236 238 240 242 244 244 245 248 251 253 252 252 255 259 261 264 267 271 272 274 277 280 280 282 283 282 283 283 282 285 289 286 280 282 286 286 288 292 292 291 290 292 298 302 302 300 299 298 298 297 297 297 297 297 298 298 299 297 294 297 301 296 291 294
210 212 215 215 214 214 215 215 215 215 216 219 221 222 224 226 228 229 231 233 236 238 239 241 243 245 246 247 248 250 252 252 251 254 257 259 262 266 269 270 273 276 278 279 281 280 278 281 280 274 276 281 280 280 283 286 287 290 289 287 287 290 298 307 310 310 308 305 303 302 300 299 299 298 298 299 299 298 296 294 297 299 296 294 296
216 218 219 218 218 218 218 218 219 219 221 223 224 225 227 228 229 230 232 234 235 237 239 241 243 246 247 248 248 249 252 252 250 252 256 257 260 264 266 267 270 274 275 275 275 274 273 279 282 275 271 274 277 280 283 285 287 290 290 291 296 301 307 310 309 307 306 305 303 303 301 301 301 301 301 302 302 301 300 297 297 297 295 296 295
220 220 220 220 220 221 221 221 222 223 225 226 226 227 228 229 230 231 232 232 233 235 238 240 242 245 246 247 248 249 251 251 250 250 253 255 256 259 262 265 268 271 270 268 267 269 272 278 281 275 269 273 277 280 284 289 292 294 298 302 303 304 306 307 305 303 303 304 305 305 304 305 306 307 307 308 308 307 306 303 302 300 298 298 300
222 222 222 222 222 222 222 224 225 226 227 226 226 228 230 231 232 232 231 231 232 234 236 238 240 243 244 246 248 248 248 250 250 249 251 254 254 254 259 264 267 266 265 264 265 267 270 274 275 273 271 274 277 281 288 294 297 298 300 301 302 304 306 303 302 303 306 308 309 308 308 309 311 312 313 313 312 312 312 310 307 304 300 298 300
225 225 224 224 224 224 224 225 226 226 227 227 228 229 229 230 230 230 230 230 230 231 234 235 237 240 242 244 246 247 246 246 249 250 250 252 253 253 256 260 261 258 257 259 261 261 264 268 270 269 270 273 278 285 294 300 301 300 301 305 307 308 304 302 304 308 311 311 311 309 309 311 312 313 314 314 314 315 315 313 310 308 306 303 301
227 227 226 226 226 226 226 226 228 229 229 228 228 228 228 228 228 228 229 228 227 229 231 232 233 236 239 242 244 245 245 244 247 249 249 250 251 252 252 252 250 248 249 253 256 257 260 264 266 267 269 274 283 292 296 298 300 303 305 309 308 304 303 306 311 313 311 310 310 308 308 309 311 312 313 313 313 314 315 314 312 311 311 309 307
226 227 227 227 227 227 228 228 229 230 230 228 227 227 226 226 225 226 226 225 225 227 228 229 231 233 236 240 243 245 246 245 244 245 247 249 249 249 249 247 244 241 243 248 254 257 258 260 262 265 268 273 284 293 294 296 302 306 303 300 302 305 310 313 314 312 310 310 309 307 306 308 310 311 312 312 313 314 315 316 316 317 316 315 312
227 228 228 228 229 229 229 229 229 228 228 228 228 228 228 227 225 224 223 223 224 226 227 228 229 231 235 239 242 243 244 244 243 242 243 247 248 247 245 244 241 239 241 247 251 254 255 257 260 262 264 269 281 290 292 295 299 298 292 294 303 311 315 317 316 313 309 307 305 304 305 308 310 311 313 313 313 315 317 318 318 318 320 319 316
230 231 230 229 229 229 229 229 229 228 227 228 228 229 230 229 226 224 223 222 222 224 225 226 227 229 232 236 238 239 240 242 243 242 241 243 246 246 243 240 238 236 238 243 247 250 254 255 254 255 259 266 277 285 287 289 293 293 294 301 308 311 315 317 313 307 303 302 303 303 305 308 310 312 315 315 314 316 319 320 318 317 320 320 316
236 234 232 229 228 229 230 230 230 230 230 230 230 229 229 229 227 228 229 228 226 224 224 225 226 228 230 231 231 231 234 238 242 246 247 247 246 242 238 237 235 233 235 240 246 253 256 251 247 248 255 266 278 284 285 287 294 296 298 302 305 308 313 314 309 304 303 304 304 303 305 308 310 312 314 314 314 317 320 320 317 316 319 319 314
243 240 237 235 234 233 233 233 234 235 234 234 233 232 231 232 232 233 234 234 233 232 231 231 232 232 231 231 229 228 233 241 248 252 254 252 249 244 239 237 236 235 233 238 249 254 249 242 241 246 257 271 282 285 284 288 293 294 295 299 303 307 311 310 308 309 311 309 305 303 305 308 310 312 314 313 314 317 319 319 317 316 317 316 311
247 245 244 244 244 244 243 242 241 241 240 240 239 237 235 235 236 238 238 238 238 239 240 242 243 241 238 238 239 239 244 252 257 255 251 247 243 240 237 234 234 233 232 238 247 246 239 235 239 249 263 276 281 280 280 284 288 290 293 297 300 304 309 309 310 312 311 306 303 302 305 306 307 310 312 312 314 317 318 318 317 316 315 314 311
249 249 250 251 252 252 252 251 249 247 246 246 246 244 242 240 239 240 241 241 241 240 240 244 249 249 246 246 246 246 249 253 253 248 241 235 231 230 230 231 232 233 236 243 244 237 231 234 243 255 268 275 276 274 275 278 281 284 289 293 296 301 306 310 313 312 308 305 305 305 306 305 305 308 311 312 313 315 316 318 318 316 314 313 310
252 253 256 257 257 256 255 253 251 249 248 247 248 248 247 246 245 245 245 245 245 244 243 243 246 248 250 252 251 249 248 248 247 242 235 231 232 233 234 236 236 236 241 245 239 231 230 238 248 259 267 271 270 269 270 271 274 277 282 287 293 299 305 310 314 312 309 309 308 306 305 304 304 307 310 312 313 314 315 316 316 316 315 314 312
259 257 257 259 259 258 255 252 250 249 248 247 247 247 247 248 251 253 253 252 251 251 250 249 248 248 248 249 251 253 256 255 249 240 235 236 238 238 239 242 241 241 243 239 229 226 233 243 251 259 265 267 267 266 265 266 269 272 277 282 289 297 304 310 312 311 311 311 307 303 303 304 305 307 310 312 313 314 314 314 314 315 316 315 314
261 256 252 253 255 255 254 252 250 250 249 248 247 247 247 247 250 254 257 253 248 246 246 245 245 246 246 245 246 250 254 255 250 244 242 241 239 238 241 245 245 245 243 232 224 227 237 244 251 259 263 264 262 261 262 263 265 269 274 279 285 294 302 306 308 309 312 312 308 305 305 305 305 307 309 311 313 314 313 313 314 315 315 315 314
253 249 246 246 249 251 252 250 248 248 249 248 247 247 248 249 249 248 248 247 243 242 244 243 242 243 246 249 251 251 251 253 253 250 247 244 240 238 242 245 245 243 236 226 225 233 241 245 251 259 262 261 258 257 259 262 263 267 272 278 284 292 298 302 305 308 311 312 309 307 306 305 305 306 307 308 310 312 313 314 314 311 312 314 315
245 243 241 239 240 241 242 243 243 244 245 245 246 246 245 246 246 245 246 248 249 251 254 255 254 253 249 247 249 252 253 252 253 251 247 244 243 242 243 243 242 237 229 225 229 236 241 246 254 260 259 257 256 256 257 260 263 267 271 275 282 288 293 298 303 307 309 309 307 306 305 305 306 308 307 307 308 309 310 312 311 308 310 316 317
233 232 230 229 229 229 230 232 235 238 239 240 242 243 243 244 246 247 249 251 254 258 261 263 265 265 261 256 255 258 259 257 255 255 253 250 248 245 243 243 241 236 232 231 234 238 244 250 256 258 256 254 254 255 257 260 264 268 270 273 278 284 290 296 300 301 301 302 304 306 307 306 305 306 306 306 306 308 310 311 308 306 311 318 318
211 213 214 214 216 218 221 223 227 231 234 236 238 239 240 242 244 248 252 255 260 266 270 273 275 276 276 277 276 273 269 264 257 253 250 247 243 242 242 243 243 241 237 236 237 242 247 252 255 258 257 255 254 255 258 261 265 268 271 274 279 283 288 293 295 296 297 300 304 306 306 304 303 304 305 304 304 307 310 309 307 307 314 318 317
179 176 173 178 186 196 205 210 215 220 222 225 230 234 239 245 251 257 263 267 271 274 276 279 280 280 282 287 287 280 273 266 259 254 250 246 243 242 243 246 246 242 238 237 240 246 251 253 255 257 256 253 254 256 259 263 267 269 272 276 279 283 287 291 294 297 299 301 304 305 304 302 302 302 302 301 302 306 308 307 306 308 313 315 314
156 154 154 158 166 176 185 191 203 216 221 227 236 244 249 257 263 267 271 275 278 280 282 283 283 285 288 289 287 280 271 265 262 260 258 255 251 248 247 247 245 242 240 241 245 250 254 255 255 255 253 252 255 257 260 264 267 269 273 276 278 283 288 291 293 296 298 300 302 303 301 300 301 300 299 300 301 303 304 304 304 307 311 313 313
143 146 150 156 163 168 169 176 197 219 232 239 248 256 261 268 272 274 278 281 281 284 286 285 286 289 291 289 286 281 275 271 270 268 265 262 257 253 249 247 244 242 243 246 249 252 254 254 253 252 251 252 256 258 261 265 268 270 274 277 279 283 288 291 293 295 297 299 300 300 299 300 300 298 297 298 299 300 302 302 302 305 309 313 313
143 150 152 155 163 166 156 151 178 228 259 263 268 271 272 275 279 281 285 288 288 289 290 289 291 294 294 290 287 282 278 277 277 275 272 267 262 258 255 252 249 247 247 249 251 251 251 251 251 251 251 253 257 260 263 267 270 273 276 278 280 283 286 290 293 294 296 297 298 298 298 297 296 295 296 297 296 299 302 302 301 304 310 313 313
150 151 152 154 160 162 157 162 190 236 264 272 282 283 280 282 284 285 286 288 289 290 291 293 296 298 297 295 292 286 281 279 279 278 276 271 266 263 261 258 256 255 254 254 254 254 253 254 253 253 254 256 259 263 266 269 273 276 277 279 281 283 286 289 292 294 296 297 298 297 295 293 294 296 299 298 297 299 301 301 300 304 310 313 313
145 141 144 144 145 158 174 186 204 225 239 255 270 276 279 283 288 289 290 292 294 294 295 296 298 300 299 298 295 289 285 283 282 281 279 275 269 264 262 260 260 258 256 257 261 264 263 259 256 255 258 260 263 266 269 272 275 277 279 281 282 284 286 289 293 296 297 296 294 294 293 293 294 296 298 299 299 299 300 300 299 303 310 314 313
133 131 131 124 124 135 152 159 190 224 244 263 276 284 289 293 298 301 301 301 301 301 300 299 300 299 298 298 296 292 289 288 287 285 284 281 275 268 262 260 261 261 261 264 268 270 267 263 259 259 261 262 265 268 271 273 276 278 280 282 283 284 288 292 294 295 294 292 291 292 293 293 293 296 298 300 299 296 297 298 298 301 308 313 312
124 119 117 113 109 102 97 83 24 325 309 300 301 304 304 302 302 302 302 302 302 302 302 302 301 299 298 298 297 294 292 290 288 288 288 287 284 279 272 266 265 265 267 268 269 268 265 264 262 263 263 265 267 270 271 274 277 279 280 282 284 286 289 292 293 291 290 288 289 291 291 290 291 294 296 297 295 295 298 299 297 300 307 311 311
117 111 109 109 105 101 101 79 325 323 320 312 309 309 308 305 302 300 298 299 300 300 301 303 303 303 302 302 300 299 297 294 291 290 289 288 288 287 284 278 274 271 271 269 266 264 264 264 264 265 267 269 271 272 273 276 278 279 281 282 283 285 288 291 290 290 289 288 287 287 286 287 288 291 293 293 293 296 300 298 297 302 309 311 310
104 101 99 98 97 95 43 329 320 316 315 313 310 308 307 305 304 302 301 300 300 301 302 304 306 307 306 306 305 304 302 298 295 292 290 289 290 291 290 288 284 279 274 271 267 264 264 265 267 269 271 272 274 275 276 278 278 279 280 281 281 284 287 288 288 288 287 285 283 282 282 283 286 289 291 291 292 294 296 295 297 305 310 311 310
95 94 90 72 45 0 322 312 305 303 305 304 300 300 301 300 300 301 302 303 303 303 304 306 309 310 308 307 306 305 303 300 297 296 294 293 294 294 293 292 290 284 279 274 271 269 268 268 270 272 273 275 277 278 278 279 279 279 280 281 282 284 285 284 284 285 284 283 282 281 280 283 287 289 287 286 287 289 292 294 299 306 310 309 310
80 48 6 339 327 318 306 299 297 297 295 292 292 294 296 296 297 300 302 302 302 304 305 307 310 311 309 306 306 306 304 303 302 300 298 298 298 297 297 296 294 291 287 283 279 277 275 273 274 275 276 277 278 279 279 280 280 280 281 282 282 281 280 280 280 281 281 281 282 283 284 287 289 286 282 282 284 286 290 294 300 306 308 309 310
338 333 324 316 314 311 304 300 300 300 297 295 294 295 296 297 299 301 301 300 301 304 305 306 308 309 308 306 305 305 304 305 305 304 302 301 300 299 297 296 294 292 291 288 285 283 281 279 279 279 279 279 280 280 280 281 281 282 282 281 279 278 278 279 279 281 283 286 290 292 292 289 284 280 278 280 282 284 288 293 299 304 308 309 311